Regional Weather Roundup
Issued by NWS Kansas City/Pleasant Hill, MO

Home | Current Version | Previous Version | Text Only | Print | Product List | Glossary On
Versions: 1 2 3 4 5 6 7 8 9 10 11 12 13 14 15 16 17 18 19 20 21 22 23 24 25 26 27 28 29 30 31 32 33 34 35 36 37 38 39 40 41 42 43 44 45 46 47 48 49 50
000
ASUS43 KEAX 281010
RWREAX

WEATHER ROUNDUP FOR EASTERN KANSAS AND NORTHWEST MISSOURI
NATIONAL WEATHER SERVICE KANSAS CITY/PLEASANT HILL MO
500 AM CDT TUE JUL 28 2015

KSZ040-057-103>105-MOZ028-029-037-043-281100-
...KANSAS CITY METROPOLITAN AREA...

CITY           SKY/WX    TMP DP  RH WIND       PRES   REMARKS
K.C. INTL      CLEAR     76  74  93 SE8       29.88S
K.C. DOWNTOWN  CLEAR     81  74  79 S5        29.87R
LEES SUMMIT    CLEAR     79  74  84 S6        29.89S
OLATHE - IXD   CLEAR     78  74  87 S7        29.89S
OLATHE - OJC   CLEAR     77  74  90 S6        29.88S
LAWRENCE       CLEAR     76  73  91 SE6       29.86S

$$

MOZ001>008-011>017-020>025-030>033-038>040-044>046-053-054-281100-
...NORTHERN AND CENTRAL MISSOURI...

CITY           SKY/WX    TMP DP  RH WIND       PRES   REMARKS
ST. JOSEPH     CLEAR     75  72  90 SE3       29.86S
MOSBY          SUNNY     73  72  94 CALM      29.88S
WARRENSBURG    CLEAR     77  73  88 SE5       29.89S
WHITEMAN AFB   CLEAR     77  77  99 SE5       29.89S
CLINTON        CLEAR     79  77  94 CALM      29.90S
SEDALIA        CLEAR     76  73  91 S6        29.92S
WARSAW         NOT AVBL
CHILLICOTHE      N/A     75  71  87 S3        29.91S
KIRKSVILLE     MOCLDY    73  69  87 SE7       29.93R

$$

MOZ041-047>049-056>058-063>065-088>090-097-281100-
...EASTERN AND SOUTHERN MISSOURI...

CITY           SKY/WX    TMP DP  RH WIND       PRES   REMARKS
ST. LOUIS INTL PTCLDY    77  71  82 CALM      29.94S
SPIRIT OF STL  CLEAR     73  73 100 CALM      29.92S
COLUMBIA       PTCLDY    73  71  93 SE5       29.93S
JEFFERSON CITY PTCLDY    74  72  93 E3        29.92R
ROLLA          CLEAR     75  73  93 S8        29.94R
OSAGE BEACH    CLEAR     75  72  88 CALM      29.93S
SPRINGFIELD    CLEAR     78  73  84 S8        29.94R
BRANSON        CLEAR     77  70  78 CALM      29.96S
JOPLIN         CLEAR     79  72  79 S9        29.92R
WEST PLAINS    CLEAR     76  71  85 SW3       29.98R

$$

IAZ060-094-KSZ022-034>040-054-083-096-NEZ052-066-093-281100-
...KANSAS...SOUTHEAST NEBRASKA AND IOWA...

CITY           SKY/WX    TMP DP  RH WIND       PRES   REMARKS
TOPEKA         CLEAR     78  74  87 S5        29.85S
MANHATTAN      CLEAR     79  72  79 SW7       29.82F
EMPORIA        CLEAR     76  72  87 S10       29.87R
CHANUTE        CLEAR     79  75  87 S7        29.89R
WICHITA        CLEAR     78  70  76 S9        29.87R
OMAHA          PTCLDY    77  72  84 S15       29.76F
LINCOLN        PTCLDY    81  71  71 S15       29.77S
FALLS CITY     CLEAR     76  73  91 S9        29.82S
LAMONI         CLEAR     73  69  87 S7        29.89S
DES MOINES     PTCLDY    74  69  85 S9        29.85F

$$




USA.gov is the U.S. government's official web portal to all federal, state and local government web resources and services.